Location: Bannatyne
(13.0833°N, 59.5333°W)
Time: 10:14:14
(UTC+00:00)

Transit 4A - Visible Passes

Search period start: 17 January 2021 00:00
Search period end: 27 January 2021 00:00
Orbit: 864 x 981 km, 66.8° (Epoch: 17 January)

Date Brightness Start Highest point End Pass type
(mag) Time Alt. Az. Time Alt. Az. Time Alt. Az.
17 Jan 10.5 01:05:51 10° W 01:07:53 12° WNW 01:07:53 12° WNW visible
17 Jan 8.0 23:24:55 10° SSW 23:31:14 80° WNW 23:34:36 30° NNE visible
18 Jan 8.8 23:34:28 10° SW 23:40:32 49° WNW 23:44:54 19° N visible
19 Jan 10.4 08:55:49 10° NNE 08:58:44 14° ENE 09:01:35 10° E visible
19 Jan 9.6 23:44:29 10° SW 23:49:53 30° WNW 23:55:13 11° N visible
20 Jan 9.9 09:03:29 10° NNE 09:08:11 24° ENE 09:12:46 10° ESE visible
20 Jan 8.4 22:07:02 10° S 22:13:00 45° ESE 22:19:01 10° NE visible
20 Jan 10.3 23:55:10 10° WSW 23:59:19 18° WNW 00:03:31 10° NNW visible
21 Jan 9.1 09:12:00 10° N 09:17:33 39° ENE 09:22:58 10° SE visible
21 Jan 8.0 22:15:56 10° SSW 22:22:14 75° ESE 22:28:37 10° NNE visible
22 Jan 10.8 00:08:22 10° WNW 00:08:50 10° WNW 00:09:17 10° WNW visible
22 Jan 8.1 09:20:55 10° NNW 09:26:52 68° ENE 09:32:38 10° SSE visible
22 Jan 8.4 22:25:14 10° SSW 22:31:30 68° WNW 22:37:52 10° NNE visible
23 Jan 7.8 09:30:11 10° NNW 09:36:08 71° WSW 09:41:54 10° SSE visible
23 Jan 9.3 22:34:56 10° SW 22:40:49 41° WNW 22:46:48 10° N visible
24 Jan 10.2 07:55:48 11° NNE 07:59:03 17° ENE 08:02:40 10° ESE visible
24 Jan 8.2 09:39:48 10° NW 09:45:20 41° WSW 09:50:45 10° S visible
24 Jan 10.1 22:45:09 10° WSW 22:50:13 25° WNW 22:55:20 10° NNW visible
25 Jan 9.5 08:06:04 22° NNE 08:08:28 28° ENE 08:13:24 10° SE visible
25 Jan 8.9 09:49:54 10° NW 09:54:31 24° WSW 09:59:04 10° SSW visible
25 Jan 10.5 22:56:13 10° W 22:59:40 15° WNW 23:03:07 10° NNW visible
26 Jan 8.6 08:16:21 40° NNE 08:17:49 48° ENE 08:23:24 10° SE visible
26 Jan 9.5 10:01:00 10° WNW 10:03:40 13° WSW 10:06:19 10° SW visible
